DW4221 Weather Reports


time (UTC)temp
F
wind
direction
speed
knots
gust
knots
rain 1hr
in
rain 24hr
in
rain mn
in
humidity
%
barometer
mb
20260505234609 36 290 2.6 7.8 0.00 0.00 0.00 60 1010.4
20260505233053 36 121 2.6 9.6 0.00 0.00 0.00 60 1010.2
20260505231557 37 247 2.6 7.0 0.00 0.00 0.00 59 1010.2
20260505230058 37 248 1.7 9.6 0.00 0.00 0.00 60 1010.0
20260505224554 37 290 1.7 7.8 0.00 0.00 0.00 58 1010.1
20260505223104 38 319 1.7 7.0 0.00 0.00 0.00 56 1009.8
20260505221549 38 306 2.6 11.3 0.00 0.00 0.00 56 1009.6
20260505220054 38 302 3.5 8.7 0.00 0.00 0.00 58 1009.5
20260505214602 39 272 2.6 10.4 0.00 0.00 0.00 58 1009.5
20260505213057 39 236 0.9 7.8 0.00 0.00 0.00 57 1009.3
20260505211617 38 281 1.7 10.4 0.00 0.00 0.00 58 1009.6
20260505210055 38 233 2.6 7.8 0.00 0.00 0.00 57 1009.4
20260505204556 38 267 3.5 13.9 0.00 0.00 0.00 57 1009.4
20260505203114 37 43 2.6 9.6 0.00 0.00 0.00 59 1009.5
20260505201552 38 285 2.6 8.7 0.00 0.00 0.00 59 1009.4
20260505200051 37 278 3.5 10.4 0.00 0.00 0.00 59 1009.5
20260505194554 38 282 3.5 9.6 0.00 0.00 0.00 59 1009.4
20260505193059 38 308 2.6 10.4 0.00 0.00 0.00 58 1009.3
20260505191556 37 291 1.7 7.8 0.00 0.00 0.00 58 1009.2
20260505190056 38 281 1.7 9.6 0.00 0.00 0.00 59 1009.0
20260505184554 37 302 2.6 10.4 0.00 0.00 0.00 57 1008.8
20260505183054 37 5 1.7 10.4 0.00 0.00 0.00 58 1008.9
20260505181552 36 307 1.7 7.8 0.00 0.00 0.00 58 1008.9
20260505180056 35 0 0.9 9.6 0.00 0.00 0.00 60 1008.9
20260505174556 35 295 1.7 12.2 0.00 0.00 0.00 62 1008.8
20260505173052 35 299 1.7 9.6 0.00 0.00 0.00 60 1008.7
20260505171556 34 14 0.9 7.0 0.00 0.00 0.00 64 1008.6
20260505170055 33 267 0.9 9.6 0.00 0.00 0.00 66 1008.8
20260505164556 32 26 1.7 13.0 0.00 0.00 0.00 64 1008.6
20260505163052 32 328 6.1 12.2 0.00 0.00 0.00 66 1008.4
20260505161548 32 317 1.7 7.0 0.00 0.00 0.00 74 1008.2
20260505153057 30 286 1.7 8.7 0.00 0.00 0.00 75 1007.9
20260505151553 29 300 0.9 8.7 0.00 0.00 0.00 76 1007.7
20260505140109 28 257 2.6 7.8 0.00 0.00 0.00 76 1007.0
20260505124554 28 251 2.6 11.3 0.00 0.00 0.00 72 1006.2
20260505123059 28 226 1.7 8.7 0.00 0.00 0.00 73 1006.0
20260505121552 29 31 1.7 6.1 0.00 0.00 0.00 73 1006.0
20260505120107 29 302 2.6 7.8 0.00 0.00 0.00 72 1005.8
20260505114557 29 332 1.7 10.4 0.00 0.04 0.00 74 1005.4
20260505113104 28 265 0.9 5.2 0.00 0.04 0.00 75 1005.3
20260505111552 29 140 0.0 8.7 0.00 0.04 0.00 77 1005.3
20260505101554 29 298 3.5 8.7 0.00 0.06 0.00 75 1005.0
20260505100052 29 283 0.9 9.6 0.00 0.06 0.00 76 1004.9
20260505094601 29 12 1.7 7.8 0.00 0.06 0.00 77 1004.7
20260505093055 29 293 2.6 9.6 0.00 0.06 0.00 78 1004.9
20260505091550 29 271 1.7 8.7 0.00 0.06 0.00 79 1004.7
20260505090058 29 276 1.7 9.6 0.00 0.06 0.00 81 1004.5
20260505084556 29 281 0.0 6.1 0.00 0.06 0.00 84 1004.3
20260505083104 29 279 0.9 7.0 0.00 0.06 0.00 84 1004.1
20260505081554 29 287 0.9 7.0 0.00 0.06 0.00 85 1004.0
20260505080050 30 13 0.9 7.0 0.00 0.06 0.00 86 1003.8
20260505074555 31 0 1.7 7.0 0.00 0.06 0.00 87 1003.6
20260505073057 31 0 0.0 7.0 0.00 0.06 0.00 88 1003.5
20260505071600 31 261 0.0 7.0 0.00 0.06 0.00 87 1003.6
20260505064557 31 261 2.6 9.6 0.00 0.06 0.00 84 1003.8
20260505063054 32 297 1.7 10.4 0.00 0.06 0.00 80 1003.7
20260505061612 32 315 0.9 15.6 0.00 0.06 0.00 79 1003.5
20260505060059 32 16 1.7 10.4 0.00 0.06 0.00 79 1003.5
20260505054557 32 284 0.9 6.1 0.00 0.06 0.00 79 1003.6
20260505053052 32 234 0.9 10.4 0.00 0.06 0.00 79 1003.4
20260505051550 33 278 1.7 12.2 0.00 0.06 0.00 80 1003.5
20260505041556 34 28 1.7 7.8 0.00 0.06 0.06 82 1002.9
20260505034554 34 269 0.0 6.1 0.00 0.06 0.06 86 1002.8
20260505033100 34 0 0.9 7.0 0.00 0.06 0.06 86 1002.7
20260505031556 35 9 2.6 9.6 0.00 0.06 0.06 83 1003.0
20260505030104 35 291 2.6 7.8 0.00 0.06 0.06 80 1002.7
20260505024553 36 296 0.9 7.0 0.00 0.06 0.06 80 1002.5
20260505023051 36 292 1.7 7.8 0.00 0.06 0.06 80 1002.3
20260505021553 36 0 0.9 7.8 0.00 0.06 0.06 80 1002.2
20260505020051 36 317 1.7 8.7 0.00 0.06 0.06 81 1001.9
20260505014553 36 321 1.7 7.0 0.00 0.06 0.06 84 1001.4
20260505013051 35 188 0.9 9.6 0.00 0.06 0.06 86 1001.5
20260505011552 35 285 0.0 5.2 0.00 0.06 0.06 88 1001.5
20260505010059 35 258 0.9 6.1 0.00 0.06 0.06 87 1001.3
20260505004552 38 264 1.7 12.2 0.00 0.06 0.06 79 1001.4
20260505003051 40 19 1.7 9.6 0.00 0.06 0.06 68 1000.9
20260505001550 40 282 0.9 10.4 0.00 0.06 0.06 68 1001.0
20260505000100 41 281 3.5 13.0 0.00 0.06 0.06 65 1000.8